Total_Precipitation_Accumulation
0.32 0.41 0.41 0.39 0.39 0.39 0.43 0.49 0.62 0.72 0.90 1.06 1.06 1.12 1.26 1.14 1.01 0.97 0.88 0.87 0.89 0.83 0.76 0.73 0.76 0.87 1.07 1.28 1.44 1.60 1.87 2.00 2.11 2.17 2.19 2.25 2.27 2.33 2.33 2.23 2.21 2.45 2.47 2.43
0.37 0.46 0.46 0.40 0.40 0.36 0.35 0.34 0.41 0.62 0.88 0.87 0.84 0.91 1.08 1.09 1.16 1.15 1.04 0.86 0.78 0.78 0.80 0.81 0.76 0.78 0.87 1.06 1.27 1.47 1.72 1.90 1.98 2.11 2.26 2.28 2.26 2.31 2.31 2.33 2.37 2.41 2.34 2.31
0.50 0.55 0.63 0.65 0.51 0.49 0.48 0.45 0.52 0.78 0.93 0.77 0.77 0.81 0.87 0.93 1.06 1.05 1.02 1.08 1.06 0.98 0.99 0.92 0.92 0.94 0.95 0.98 1.18 1.42 1.62 1.77 1.91 2.03 2.15 2.19 2.15 2.27 2.40 2.37 2.29 2.18 2.10 2.09
0.53 0.72 1.02 0.77 0.50 0.44 0.47 0.54 0.52 0.61 0.67 0.65 0.70 0.72 0.80 0.94 0.96 0.93 0.84 0.86 1.02 1.08 1.10 1.07 1.02 1.11 1.11 1.15 1.29 1.49 1.69 1.82 1.90 2.05 2.10 2.13 2.14 2.13 2.16 2.17 2.13 2.12 2.00 1.99
0.68 0.82 0.85 0.75 0.60 0.58 0.60 0.69 0.54 0.55 0.62 0.68 0.75 0.82 0.96 0.87 0.85 0.91 0.85 0.91 0.97 1.04 1.12 1.26 1.29 1.31 1.36 1.47 1.60 1.62 1.72 1.87 1.99 2.08 2.10 2.11 2.14 2.11 2.12 2.12 2.06 2.06 2.03 2.05
0.74 1.01 1.12 0.92 0.67 0.67 0.79 1.23 0.83 0.69 0.79 0.88 0.87 1.16 1.26 0.90 0.92 1.05 0.91 0.89 0.97 1.05 1.08 1.25 1.41 1.49 1.52 1.61 1.77 1.75 1.78 1.89 1.99 2.07 2.19 2.14 2.25 2.32 2.29 2.20 2.11 2.08 2.10 2.07
0.80 1.07 1.20 0.84 0.66 0.79 1.48 1.70 1.02 0.88 0.94 1.02 1.09 1.11 1.05 0.90 1.01 1.16 1.03 0.95 0.89 1.01 1.26 1.38 1.47 1.61 1.67 1.63 1.67 1.71 1.85 1.97 2.06 2.14 2.21 2.20 2.26 2.32 2.33 2.26 2.23 2.10 1.98 1.98
1.07 1.42 1.59 0.96 0.87 1.25 1.48 1.16 1.07 1.01 0.96 0.99 0.99 0.95 0.89 0.85 0.94 1.04 1.15 1.21 1.24 1.33 1.45 1.49 1.53 1.69 1.82 1.84 1.78 1.87 1.95 1.95 2.06 2.20 2.03 2.02 2.25 2.33 2.36 2.37 2.33 2.20 2.07 1.98
1.40 1.54 1.40 1.26 1.28 1.32 1.20 1.25 1.19 1.06 1.01 0.98 0.98 0.96 0.98 0.94 0.90 1.02 1.21 1.26 1.30 1.36 1.38 1.45 1.55 1.67 1.89 1.96 1.91 1.90 1.97 2.00 2.03 2.07 2.18 2.25 2.30 2.38 2.35 2.29 2.25 2.20 2.15 2.04
1.68 1.64 1.47 1.49 1.43 1.37 1.31 1.31 1.22 1.12 1.15 1.08 1.11 1.23 1.21 1.16 1.12 1.04 1.07 1.11 1.18 1.30 1.33 1.48 1.63 1.79 2.01 2.05 2.00 2.03 2.11 2.20 2.17 2.12 2.16 2.33 2.48 2.48 2.39 2.24 2.28 2.31 2.20 2.17
2.07 1.99 1.74 1.58 1.40 1.29 1.22 1.17 1.11 1.12 1.18 1.21 1.18 1.30 1.34 1.41 1.42 1.33 1.21 1.20 1.31 1.50 1.61 1.68 1.75 1.78 1.92 2.09 2.20 2.29 2.31 2.30 2.31 2.32 2.37 2.45 2.43 2.41 2.41 2.35 2.30 2.33 2.29 2.26
2.38 1.99 1.82 1.78 1.57 1.48 1.28 1.19 1.16 1.17 1.16 1.22 1.22 1.29 1.28 1.37 1.52 1.51 1.52 1.58 1.55 1.56 1.71 1.79 1.79 1.84 1.96 2.20 2.45 2.65 2.60 2.49 2.49 2.48 2.50 2.48 2.50 2.34 2.22 2.14 2.08 1.98 2.00 1.99
2.08 1.83 1.69 1.58 1.55 1.58 1.44 1.29 1.24 1.25 1.24 1.29 1.39 1.37 1.37 1.44 1.49 1.57 1.59 1.71 1.77 1.70 1.70 1.78 1.80 1.90 2.01 2.13 2.39 2.68 2.76 2.72 2.60 2.51 2.46 2.44 2.53 2.54 2.45 2.30 2.23 2.07 1.93 1.84
1.92 1.95 1.85 1.67 1.56 1.53 1.57 1.49 1.33 1.34 1.29 1.29 1.42 1.55 1.55 1.48 1.50 1.57 1.57 1.61 1.65 1.66 1.66 1.65 1.63 1.69 1.91 2.18 2.44 2.61 2.67 2.65 2.58 2.53 2.44 2.42 2.52 2.59 2.53 2.47 2.43 2.28 2.07 1.95
1.88 1.97 1.91 1.69 1.69 1.60 1.52 1.48 1.51 1.66 1.50 1.38 1.43 1.66 1.68 1.50 1.48 1.55 1.54 1.49 1.52 1.60 1.66 1.63 1.66 1.71 1.83 2.13 2.48 2.63 2.61 2.58 2.51 2.46 2.51 2.58 2.62 2.68 2.64 2.59 2.54 2.43 2.19 2.00
1.89 1.94 1.86 1.72 1.75 1.71 1.58 1.59 1.68 1.74 1.57 1.44 1.45 1.64 1.85 1.73 1.55 1.54 1.52 1.56 1.64 1.65 1.69 1.69 1.73 1.82 1.92 2.13 2.44 2.60 2.67 2.67 2.61 2.46 2.42 2.52 2.64 2.62 2.60 2.59 2.51 2.42 2.31 2.09
2.04 2.21 2.02 1.83 1.80 1.73 1.69 1.70 1.75 1.79 1.75 1.68 1.61 1.65 1.75 1.70 1.69 1.68 1.66 1.69 1.79 1.80 1.79 1.80 1.81 1.88 1.94 2.11 2.31 2.33 2.38 2.33 2.30 2.19 2.17 2.21 2.38 2.45 2.49 2.55 2.42 2.28 2.20 2.11
2.07 2.16 2.04 1.83 1.74 1.79 1.82 1.73 1.70 1.80 1.89 1.82 1.74 1.81 1.93 1.94 1.98 1.98 1.85 1.79 1.84 1.89 1.89 1.88 1.86 1.88 1.95 2.03 2.24 2.24 2.22 2.18 2.07 1.97 2.01 2.10 2.22 2.31 2.40 2.46 2.39 2.29 2.16 2.06
2.05 2.02 1.86 1.75 1.71 1.79 1.95 1.89 1.73 1.71 1.80 1.83 1.84 1.89 1.98 2.08 2.06 2.02 1.98 2.01 2.07 2.16 2.13 2.02 2.01 1.83 1.91 2.04 2.24 2.39 2.36 2.27 2.22 2.17 2.09 2.16 2.15 2.19 2.32 2.30 2.22 2.18 2.09 1.97
2.02 1.96 1.89 1.90 1.81 1.83 1.90 1.88 1.81 1.68 1.65 1.72 1.79 1.82 1.91 2.05 2.10 2.07 2.02 1.99 2.05 2.17 2.19 2.10 1.82 1.76 1.82 2.00 2.21 2.24 2.37 2.37 2.27 2.14 2.05 2.01 2.02 2.13 2.17 2.08 1.96 1.94 1.90 1.79
2.13 2.12 2.16 2.08 2.01 1.96 1.94 1.89 1.76 1.68 1.63 1.68 1.80 1.87 1.93 2.09 2.20 2.19 2.23 2.17 2.04 1.97 1.85 1.84 1.70 1.71 1.71 1.83 1.97 2.02 2.19 2.27 2.28 2.18 2.03 1.90 1.85 1.86 1.84 1.79 1.73 1.69 1.69 1.68
2.21 2.10 2.08 1.88 1.81 1.84 1.79 1.70 1.57 1.52 1.54 1.61 1.72 1.79 1.85 1.97 2.14 2.12 2.03 2.12 2.05 1.96 1.70 1.61 1.65 1.77 1.79 1.75 1.68 1.84 2.01 2.05 2.03 1.95 1.81 1.69 1.68 1.69 1.67 1.59 1.53 1.47 1.43 1.41
2.12 1.90 1.82 1.72 1.63 1.62 1.57 1.50 1.38 1.38 1.43 1.48 1.62 1.80 1.93 1.91 1.92 1.99 1.96 1.77 1.68 1.66 1.55 1.56 1.62 1.65 1.61 1.55 1.61 1.71 1.79 1.82 1.83 1.80 1.76 1.67 1.61 1.62 1.55 1.40 1.35 1.29 1.23 1.20
1.86 1.65 1.57 1.50 1.41 1.37 1.36 1.31 1.23 1.22 1.24 1.31 1.42 1.59 1.82 1.92 1.82 1.63 1.64 1.63 1.48 1.36 1.31 1.39 1.39 1.38 1.38 1.33 1.44 1.55 1.61 1.61 1.62 1.59 1.53 1.50 1.47 1.47 1.36 1.25 1.18 1.13 1.13 1.09
1.74 1.60 1.50 1.40 1.36 1.31 1.23 1.20 1.20 1.20 1.23 1.34 1.41 1.45 1.63 1.82 1.84 1.57 1.36 1.26 1.24 1.13 1.06 1.07 1.05 1.06 1.03 1.04 1.10 1.19 1.31 1.38 1.42 1.42 1.36 1.38 1.40 1.42 1.33 1.23 1.15 1.11 1.09 1.06
1.67 1.60 1.57 1.46 1.38 1.37 1.32 1.27 1.31 1.31 1.37 1.51 1.51 1.41 1.46 1.54 1.53 1.39 1.23 1.10 1.08 1.09 0.97 0.92 0.88 0.83 0.75 0.73 0.79 0.91 1.00 1.10 1.17 1.16 1.17 1.24 1.32 1.34 1.31 1.28 1.22 1.18 1.14 1.11
1.56 1.52 1.52 1.43 1.32 1.31 1.35 1.36 1.41 1.44 1.55 1.75 1.76 1.54 1.44 1.44 1.43 1.38 1.32 1.22 1.14 1.14 1.02 0.93 0.88 0.84 0.77 0.73 0.73 0.81 0.85 0.90 0.97 1.03 1.08 1.11 1.17 1.25 1.26 1.24 1.27 1.21 1.13 1.06